Weather History for KARV - March, 2013

Change the Weather History Date:

Thursday, March 14, 2013

  Actual Average (KRHI) Record (KRHI)
Temperature  
Mean Temperature 18 °F 26 °F  
Max Temperature 35 °F 36 °F 71 °F (2012)
Min Temperature 0 °F 16 °F -18 °F (1926)
Degree Days  
Heating Degree Days 48 39  
Month to date heating degree days 582  
Since 1 July heating degree days 7204  
Cooling Degree Days 0 0  
Month to date cooling degree days 0  
Year to date cooling degree days 0  
Moisture  
Dew Point 13 °F    
Average Humidity 71    
Maximum Humidity 85    
Minimum Humidity 41    
Precipitation  
Precipitation 0.00 in 0.05 in 0.72 in (1913)
Month to date precipitation 0.62  
Year to date precipitation 2.66  
Snow  
Snow 0.00 in - 6.00 in (1917)
Month to date snowfall  
Since 1 July snowfall  
Snow Depth -    
Sea Level Pressure  
Sea Level Pressure 30.08 in    
Wind  
Wind Speed 3 mph (SW)    
Max Wind Speed 13 mph    
Max Gust Speed 16 mph    
Visibility 10 miles    
Events      
T = Trace of Precipitation, MM = Missing Value Source: NWS Daily Summary

Daily Weather History Graph

Daily Weather History Graph

Search for Another Location

Airport or City:

Trip Planner

Search our weather history database for the weather conditions in past years. The results will help you decide how hot, cold, wet, or windy it might be!

Date:

Astronomy

Mar. 14, 2013 Rise Set
Actual Time 7:12 AM CDT 7:03 PM CDT
Civil Twilight 6:43 AM CDT 7:33 PM CDT
Nautical Twilight 6:08 AM CDT 8:08 PM CDT
Astronomical Twilight 5:33 AM CDT 8:43 PM CDT
Moon 8:15 AM CDT (3/14) 10:33 PM CDT (3/14)
Length of Visible Light 12h 50m
Length of Day
11h 50m
Waxing Crescent, 9% of the Moon is Illuminated
Mar 14
Waxing Crescent
Mar 19
First Quarter
Mar 27
Full
Apr 2
Last Quarter
Apr 10
New

Hourly Weather History & Observations

Time (CDT) Temp. Windchill Dew Point Humidity Pressure Visibility Wind Dir Wind Speed Gust Speed Precip Events Conditions
12:15 AM 12.2 °F - 8.6 °F 85% 30.19 in 7.0 mi Calm Calm - N/A   Clear
12:35 AM 10.4 °F - 5.0 °F 79% 30.19 in 10.0 mi Calm Calm - N/A   Clear
12:55 AM 10.4 °F - 5.0 °F 79% 30.19 in 10.0 mi Calm Calm - N/A   Clear
1:15 AM 10.4 °F - 5.0 °F 79% 30.18 in 10.0 mi Calm Calm - N/A   Clear
1:55 AM 6.8 °F - 3.2 °F 85% 30.17 in 10.0 mi Calm Calm - N/A   Clear
2:15 AM 5.0 °F - 1.4 °F 85% 30.17 in 10.0 mi Calm Calm - N/A   Clear
2:35 AM 5.0 °F - 1.4 °F 85% 30.17 in 10.0 mi Calm Calm - N/A   Clear
2:55 AM 5.0 °F - 1.4 °F 85% 30.17 in 10.0 mi Calm Calm - N/A   Clear
3:15 AM 3.2 °F - -0.4 °F 85% 30.17 in 10.0 mi Calm Calm - N/A   Clear
3:35 AM 3.2 °F - -0.4 °F 85% 30.17 in 10.0 mi Calm Calm - N/A   Clear
3:55 AM 3.2 °F - -0.4 °F 85% 30.17 in 10.0 mi Calm Calm - N/A   Clear
4:15 AM 3.2 °F - -0.4 °F 85% 30.17 in 10.0 mi Calm Calm - N/A   Clear
4:35 AM 3.2 °F - -0.4 °F 85% 30.16 in 10.0 mi Calm Calm - N/A   Clear
4:55 AM 3.2 °F - -2.2 °F 78% 30.15 in 10.0 mi Calm Calm - N/A   Clear
5:15 AM 1.4 °F - -2.2 °F 85% 30.15 in 10.0 mi Calm Calm - N/A   Clear
5:35 AM 1.4 °F - -2.2 °F 85% 30.15 in 10.0 mi Calm Calm - N/A   Clear
5:55 AM 1.4 °F - -4.0 °F 78% 30.15 in 10.0 mi Calm Calm - N/A   Clear
6:15 AM 1.4 °F - -4.0 °F 78% 30.15 in 10.0 mi Calm Calm - N/A   Clear
6:35 AM 1.4 °F - -4.0 °F 78% 30.15 in 10.0 mi Calm Calm - N/A   Clear
6:55 AM 1.4 °F - -4.0 °F 78% 30.15 in 10.0 mi Calm Calm - N/A   Clear
7:15 AM 1.4 °F - -4.0 °F 78% 30.15 in 10.0 mi Calm Calm - N/A   Clear
7:35 AM -0.4 °F - -5.8 °F 78% 30.15 in 10.0 mi Calm Calm - N/A   Clear
7:55 AM 1.4 °F - -4.0 °F 78% 30.15 in 10.0 mi Calm Calm - N/A   Clear
8:15 AM 1.4 °F - -4.0 °F 78% 30.15 in 5.0 mi Calm Calm - N/A   Haze
8:35 AM 3.2 °F - -4.0 °F 72% 30.16 in 10.0 mi Calm Calm - N/A   Clear
8:55 AM 5.0 °F - -0.4 °F 78% 30.15 in 7.0 mi Calm Calm - N/A   Clear
9:15 AM 10.4 °F - 1.4 °F 67% 30.15 in 7.0 mi Calm Calm - N/A   Clear
9:35 AM 14.0 °F 8.2 °F 6.8 °F 73% 30.14 in 10.0 mi SSW 3.5 mph - N/A   Clear
9:55 AM 19.4 °F 12.8 °F 10.4 °F 68% 30.13 in 10.0 mi SSW 4.6 mph - N/A   Clear
10:15 AM 21.2 °F 16.4 °F 10.4 °F 63% 30.12 in 10.0 mi SSW 3.5 mph - N/A   Clear
10:35 AM 24.8 °F 19.1 °F 12.2 °F 59% 30.11 in 10.0 mi SSW 4.6 mph - N/A   Clear
10:55 AM 28.4 °F 20.4 °F 12.2 °F 51% 30.10 in 10.0 mi South 8.1 mph - N/A   Clear
11:15 AM 30.2 °F 22.6 °F 12.2 °F 47% 30.10 in 10.0 mi South 8.1 mph - N/A   Clear
11:35 AM 30.2 °F 23.4 °F 12.2 °F 47% 30.10 in 10.0 mi South 6.9 mph - N/A   Clear
12:15 PM 32.0 °F 24.2 °F 10.4 °F 41% 30.09 in 10.0 mi SSW 9.2 mph - N/A   Clear
12:35 PM 32.0 °F 23.0 °F 10.4 °F 41% 30.07 in 10.0 mi SSW 11.5 mph - N/A   Clear
12:55 PM 32.0 °F 25.6 °F 12.2 °F 44% 30.08 in 10.0 mi South 6.9 mph - N/A   Clear
1:15 PM 32.0 °F 24.8 °F 12.2 °F 44% 30.09 in 10.0 mi South 8.1 mph - N/A   Scattered Clouds
1:35 PM 33.8 °F 27.0 °F 12.2 °F 41% 30.07 in 10.0 mi SSW 8.1 mph - N/A   Scattered Clouds
1:55 PM 35.6 °F 29.2 °F 17.6 °F 48% 30.06 in 10.0 mi South 8.1 mph - N/A   Clear
2:15 PM 35.6 °F 29.9 °F 17.6 °F 48% 30.07 in 10.0 mi SSW 6.9 mph - N/A   Mostly Cloudy
2:55 PM 35.6 °F 27.1 °F 19.4 °F 52% 30.06 in 10.0 mi WSW 12.7 mph - N/A   Overcast
3:15 PM 35.6 °F 28.0 °F 21.2 °F 56% 30.05 in 10.0 mi SW 10.4 mph - N/A   Overcast
3:35 PM 35.6 °F 29.2 °F 21.2 °F 56% 30.04 in 10.0 mi SW 8.1 mph - N/A   Overcast
3:55 PM 35.6 °F 28.6 °F 23.0 °F 60% 30.02 in 10.0 mi SW 9.2 mph - N/A   Overcast
4:15 PM 35.6 °F 28.0 °F 23.0 °F 60% 30.01 in 10.0 mi SSW 10.4 mph - N/A   Overcast
4:35 PM 35.6 °F 29.9 °F 23.0 °F 60% 30.01 in 10.0 mi WSW 6.9 mph - N/A   Overcast
4:55 PM 35.6 °F 29.2 °F 23.0 °F 60% 30.01 in 10.0 mi WSW 8.1 mph - N/A   Overcast
5:15 PM 35.6 °F 27.5 °F 24.8 °F 65% 30.01 in 10.0 mi SW 11.5 mph - N/A   Overcast
5:35 PM 35.6 °F 27.5 °F 24.8 °F 65% 30.00 in 10.0 mi SW 11.5 mph - N/A   Overcast
5:55 PM 35.6 °F 28.6 °F 26.6 °F 70% 29.99 in 10.0 mi SW 9.2 mph 16.1 mph N/A   Overcast
6:15 PM 35.6 °F 29.9 °F 26.6 °F 70% 29.99 in 10.0 mi WSW 6.9 mph - N/A   Overcast
6:35 PM 33.8 °F 25.8 °F 26.6 °F 75% 29.98 in 10.0 mi WSW 10.4 mph - N/A   Mostly Cloudy
6:55 PM 33.8 °F 27.0 °F 26.6 °F 75% 29.98 in 10.0 mi WSW 8.1 mph - N/A   Scattered Clouds
7:15 PM 32.0 °F 25.6 °F 26.6 °F 80% 29.98 in 10.0 mi West 6.9 mph - N/A   Clear
7:35 PM 32.0 °F 24.8 °F 26.6 °F 80% 29.98 in 10.0 mi West 8.1 mph - N/A   Scattered Clouds
7:55 PM 32.0 °F 27.5 °F 26.6 °F 80% 29.98 in 10.0 mi WSW 4.6 mph - N/A   Clear
8:15 PM 32.0 °F 27.5 °F 26.6 °F 80% 29.96 in 10.0 mi WSW 4.6 mph - N/A   Clear
8:35 PM 32.0 °F 24.8 °F 26.6 °F 80% 29.96 in 10.0 mi WSW 8.1 mph - N/A   Clear
8:55 PM 32.0 °F 25.6 °F 26.6 °F 80% 29.96 in 10.0 mi WSW 6.9 mph - N/A   Clear
9:15 PM 32.0 °F 25.6 °F 26.6 °F 80% 29.96 in 10.0 mi WSW 6.9 mph - N/A   Clear
9:35 PM 32.0 °F 27.5 °F 26.6 °F 80% 29.96 in 10.0 mi West 4.6 mph - N/A   Scattered Clouds
9:55 PM 32.0 °F 26.4 °F 26.6 °F 80% 29.96 in 10.0 mi West 5.8 mph - N/A   Overcast
10:15 PM 32.0 °F 25.6 °F 26.6 °F 80% 29.96 in 10.0 mi West 6.9 mph - N/A   Overcast
10:35 PM 32.0 °F 25.6 °F 26.6 °F 80% 29.95 in 10.0 mi West 6.9 mph - N/A   Overcast
10:55 PM 32.0 °F 24.2 °F 26.6 °F 80% 29.95 in 10.0 mi West 9.2 mph - N/A   Overcast
11:15 PM 32.0 °F 24.2 °F 26.6 °F 80% 29.93 in 10.0 mi West 9.2 mph - N/A   Overcast
11:35 PM 32.0 °F 24.2 °F 26.6 °F 80% 29.93 in 10.0 mi West 9.2 mph - N/A   Overcast
11:55 PM 32.0 °F 24.8 °F 26.6 °F 80% 29.93 in 10.0 mi West 8.1 mph - N/A   Overcast